"Timestamp","TZ","WindDir_Mean (deg)","WindSpd_Mean (km/h)","WindSpd_Min (km/h)","WindSpd_Max (km/h)","Temp_Mean (deg)","RH_Mean (%)","MSLP_Mean (hPa)","Rain_Acc (mm)","Rain_Intensity (mm/h)","Hail_Acc (hits/cm2)","Hail_Intensity (hits/cm2hr)","Solar_Mean (W/m2)"
2022/06/03 00:00:00.009,n,181,0.72,0.36,1.08,11,72,1021.12,0,0,0,0,0.025253
2022/06/03 00:01:00.000,n,232,3.6,2.88,5.4,11,71.8,1021.02,0,0,0,0,0.026093
2022/06/03 00:02:00.002,n,246,2.16,1.8,2.16,11,72.1,1021.12,0,0,0,0,0.030479
2022/06/03 00:03:00.000,n,168,2.88,1.44,3.6,11,71.9,1021.12,0,0,0,0,0.028725
2022/06/03 00:04:00.000,n,247,4.68,3.96,5.4,11,72,1021.12,0,0,0,0,0.025253
2022/06/03 00:05:00.000,n,3,2.52,0.72,3.96,11,72.3,1021.02,0,0,0,0,0.026093
2022/06/03 00:06:00.007,n,172,2.16,1.8,2.88,11,71.7,1021.02,0,0,0,0,0.024376
2022/06/03 00:07:00.000,n,199,3.6,2.16,4.68,11,71.6,1021.02,0,0,0,0,0.026093
2022/06/03 00:08:00.010,n,166,4.32,4.32,4.68,11,71.5,1021.02,0,0,0,0,0.025253
2022/06/03 00:09:00.006,n,78,1.44,0.72,2.52,11,72.1,1021.02,0,0,0,0,0.025253
2022/06/03 00:10:00.000,n,205,3.24,2.88,4.68,11,71.6,1021.02,0,0,0,0,0.025253
2022/06/03 00:11:00.000,n,126,1.8,1.44,2.16,11,71.5,1021.02,0,0,0,0,0.025253
2022/06/03 00:12:00.000,n,78,1.8,0.72,2.16,11,71.4,1021.02,0,0,0,0,0.02697
2022/06/03 00:13:00.000,n,22,2.16,1.44,2.52,11,71.9,1021.02,0,0,0,0,0.021744
2022/06/03 00:14:00.008,n,283,1.8,1.8,2.16,11,71.8,1021.02,0,0,0,0,0.022621
2022/06/03 00:15:00.006,n,132,2.16,1.8,2.16,11,71.5,1021.02,0,0,0,0,0.030479
2022/06/03 00:16:00.004,n,201,0.72,0.36,1.08,11,71.3,1021.02,0,0,0,0,0.025253
2022/06/03 00:17:00.001,n,45,0.72,0.36,1.44,11,71.5,1021.02,0,0,0,0,0.027885
2022/06/03 00:18:00.015,n,274,2.16,1.44,2.88,11,71.6,1020.92,0,0,0,0,0.027885
2022/06/03 00:19:00.000,n,211,1.44,0.72,2.88,11,71.4,1020.92,0,0,0,0,0.029602
2022/06/03 00:20:00.000,n,275,4.68,4.32,5.04,11,71.4,1020.92,0,0,0,0,0.027885
2022/06/03 00:21:00.000,n,258,4.32,3.6,5.76,11,71.3,1020.92,0,0,0,0,0.025253
2022/06/03 00:22:00.005,n,192,1.8,1.8,2.16,11,72.1,1020.92,0,0,0,0,0.031319
2022/06/03 00:23:00.003,n,233,0.72,0.36,1.44,11,71.8,1020.92,0,0,0,0,0.026093
2022/06/03 00:24:00.000,n,214,0.36,0.36,0.72,11,71.7,1020.92,0,0,0,0,0.027885
2022/06/03 00:25:00.000,n,245,1.8,1.08,1.8,11,71.6,1020.92,0,0,0,0,0.030479
2022/06/03 00:26:00.010,n,127,0.72,0.72,0.72,11,71.6,1020.92,0,0,0,0,0.02697
2022/06/03 00:27:00.007,n,118,0.72,0.36,1.44,11,71.7,1020.92,0,0,0,0,0.030479
2022/06/03 00:28:00.000,n,141,1.8,0.72,2.88,10.9,71.8,1020.92,0,0,0,0,0.028725
2022/06/03 00:29:00.002,n,252,0.72,0.36,0.72,11,72.6,1020.92,0,0,0,0,0.031319
2022/06/03 00:30:00.000,n,288,3.24,2.88,3.96,11,72,1020.92,0,0,0,0,0.030479
2022/06/03 00:31:00.000,n,258,2.88,2.16,3.24,11,71.6,1020.92,0,0,0,0,0.031319
2022/06/03 00:32:00.000,n,242,1.08,1.08,1.44,11,71.6,1020.92,0,0,0,0,0.028725
2022/06/03 00:33:00.008,n,162,1.08,0.72,1.44,10.9,71.7,1020.92,0,0,0,0,0.033073
2022/06/03 00:34:00.005,n,264,2.52,2.16,2.88,10.9,71.7,1020.92,0,0,0,0,0.030479
2022/06/03 00:35:00.003,n,125,5.4,4.68,6.84,10.9,71.8,1020.82,0,0,0,0,0.031319
2022/06/03 00:36:00.000,n,154,2.16,2.16,2.52,10.9,71.8,1020.82,0,0,0,0,0.032234
2022/06/03 00:37:00.000,n,267,1.44,0.72,2.16,10.9,71.9,1020.92,0,0,0,0,0.032234
2022/06/03 00:38:00.000,n,285,2.16,2.16,2.52,10.9,72.1,1020.92,0,0,0,0,0.033951
2022/06/03 00:39:00.002,n,262,2.52,2.52,2.88,11,71.7,1020.92,0,0,0,0,0.035667
2022/06/03 00:40:00.000,n,283,3.24,2.52,3.6,11,72.4,1020.92,0,0,0,0,0.036583
2022/06/03 00:41:00.000,n,255,2.88,2.52,3.24,11,72,1020.92,0,0,0,0,0.033951
2022/06/03 00:42:00.000,n,255,3.24,2.88,3.24,11,71.9,1020.92,0,0,0,0,0.034828
2022/06/03 00:43:00.008,n,266,2.88,2.16,3.24,10.9,71.9,1020.92,0,0,0,0,0.040016
2022/06/03 00:44:00.006,n,258,1.08,0.36,1.08,10.9,72,1020.92,0,0,0,0,0.03746
2022/06/03 00:45:00.003,n,240,0.72,0.72,1.08,10.9,72.3,1020.92,0,0,0,0,0.035667
2022/06/03 00:46:00.002,n,282,2.88,2.16,3.24,10.9,72.4,1020.92,0,0,0,0,0.033951
2022/06/03 00:47:00.000,n,222,1.44,1.08,1.8,10.9,72.2,1020.82,0,0,0,0,0.033073
2022/06/03 00:48:00.000,n,91,3.6,3.24,3.96,10.9,72.2,1020.82,0,0,0,0,0.036583
2022/06/03 00:49:00.000,n,266,1.8,1.44,2.16,10.9,72.2,1020.82,0,0,0,0,0.035667
2022/06/03 00:50:00.005,n,274,0.72,0.36,0.72,10.9,72,1020.82,0,0,0,0,0.036583
2022/06/03 00:51:00.003,n,11,1.08,0.72,1.44,10.9,72.1,1020.82,0,0,0,0,0.03746
2022/06/03 00:52:00.007,n,239,1.44,1.44,1.8,11,71.9,1020.82,0,0,0,0,0.0383
2022/06/03 00:53:00.004,n,171,1.08,0.72,1.44,11,71.8,1020.82,0,0,0,0,0.0383
2022/06/03 00:54:00.001,n,260,1.8,0.36,3.24,11,72,1020.82,0,0,0,0,0.0383
2022/06/03 00:55:00.000,n,237,2.16,1.8,2.52,11,71.8,1020.82,0,0,0,0,0.0383
2022/06/03 00:56:00.000,n,72,1.08,0.36,1.8,11,71.7,1020.72,0,0,0,0,0.040016
2022/06/03 00:57:00.000,n,172,1.8,1.8,2.16,11,71.8,1020.72,0,0,0,0,0.043526
2022/06/03 00:58:00.007,n,192,0.36,0,0.36,11,71.8,1020.62,0,0,0,0,0.040932
2022/06/03 00:59:00.004,n,71,1.08,1.08,1.8,10.9,72,1020.62,0,0,0,0,0.039177
2022/06/03 01:00:00.000,n,140,2.16,1.8,2.88,11,72,1020.52,0,0,0,0,0.043526
2022/06/03 01:01:00.000,n,169,1.44,1.08,2.52,11,71.6,1020.62,0,0,0,0,0.040932
2022/06/03 01:02:00.011,n,144,2.88,2.88,3.24,10.9,71.3,1020.62,0,0,0,0,0.043526
2022/06/03 01:03:00.009,n,175,2.16,1.8,2.16,10.9,71.2,1020.62,0,0,0,0,0.04528
2022/06/03 01:04:00.000,n,278,4.32,3.96,4.68,10.9,71.4,1020.62,0,0,0,0,0.042648
2022/06/03 01:05:00.002,n,87,0.72,0.36,1.44,10.9,71.8,1020.62,0,0,0,0,0.040932
2022/06/03 01:06:00.000,n,235,1.08,0.72,1.08,10.9,71.5,1020.52,0,0,0,0,0.03746
2022/06/03 01:07:00.000,n,123,1.8,1.44,1.8,10.9,71.7,1020.52,0,0,0,0,0.040932
2022/06/03 01:08:00.000,n,177,1.08,0.36,1.44,10.9,71,1020.52,0,0,0,0,0.041809
2022/06/03 01:09:00.000,n,127,0.72,0.36,1.08,10.9,71,1020.52,0,0,0,0,0.042648
2022/06/03 01:10:00.006,n,81,0.72,0.72,0.72,10.9,71,1020.52,0,0,0,0,0.042648
2022/06/03 01:11:00.003,n,311,0.72,0.36,1.44,10.9,71.3,1020.42,0,0,0,0,0.043526
2022/06/03 01:12:00.000,n,23,3.6,1.8,5.4,10.9,71.6,1020.42,0,0,0,0,0.043526
2022/06/03 01:13:00.000,n,29,0.72,0.36,1.44,11,72.1,1020.42,0,0,0,0,0.046158
2022/06/03 01:14:00.000,n,331,1.08,0.72,1.8,11,71.7,1020.42,0,0,0,0,0.046158
2022/06/03 01:15:00.003,n,219,0.72,0.36,0.72,11,71.6,1020.32,0,0,0,0,0.044403
2022/06/03 01:16:00.000,n,261,0.36,0,0.36,11,71.1,1020.32,0,0,0,0,0.04879
2022/06/03 01:17:00.000,n,134,2.88,2.16,3.6,11,70.7,1020.32,0,0,0,0,0.04528
2022/06/03 01:18:00.010,n,154,0.72,0.36,1.08,10.9,70.7,1020.32,0,0,0,0,0.047874
2022/06/03 01:19:00.009,n,167,0.72,0.36,1.08,10.9,70.8,1020.32,0,0,0,0,0.047874
2022/06/03 01:20:00.005,n,301,1.44,1.08,1.8,10.9,70.7,1020.32,0,0,0,0,0.046997
2022/06/03 01:21:00.003,n,156,2.52,0.36,3.96,10.9,70.9,1020.32,0,0,0,0,0.046997
2022/06/03 01:22:00.000,n,282,1.08,0.72,1.08,10.8,71,1020.32,0,0,0,0,0.04528
2022/06/03 01:23:00.000,n,173,2.52,1.08,3.24,10.9,71.3,1020.32,0,0,0,0,0.043526
2022/06/03 01:24:00.000,n,183,0.36,0.36,0.36,10.9,71.2,1020.32,0,0,0,0,0.044403
2022/06/03 01:25:00.000,n,254,0.72,0.36,1.08,10.9,71.5,1020.32,0,0,0,0,0.046997
2022/06/03 01:26:00.006,n,101,0.72,0,1.08,10.9,71.3,1020.32,0,0,0,0,0.047874
2022/06/03 01:27:00.006,n,250,2.16,1.8,2.52,10.9,71.3,1020.32,0,0,0,0,0.04879
2022/06/03 01:28:00.003,n,263,3.24,2.88,3.6,10.9,71.4,1020.32,0,0,0,0,0.044403
2022/06/03 01:29:00.000,n,194,0.72,0.36,1.08,10.9,71.5,1020.32,0,0,0,0,0.046158
2022/06/03 01:30:00.015,n,134,0.72,0.36,0.72,10.9,71.6,1020.22,0,0,0,0,0.046997
2022/06/03 01:31:00.000,n,218,0.36,0.36,0.72,10.9,71.6,1020.22,0,0,0,0,0.046997
2022/06/03 01:32:00.000,n,219,1.44,1.44,1.44,10.9,71.7,1020.22,0,0,0,0,0.049629
2022/06/03 01:33:00.000,n,227,2.52,2.16,3.24,10.9,71.6,1020.22,0,0,0,0,0.028763
2022/06/03 01:34:00.002,n,49,0.36,0,0.36,10.9,71.7,1020.22,0,0,0,0,0.033951
2022/06/03 01:35:00.000,n,187,2.52,2.16,2.88,10.9,71.7,1020.12,0,0,0,0,0.033112
2022/06/03 01:36:00.000,n,137,2.52,2.16,2.52,10.9,71.8,1020.12,0,0,0,0,0.032234
2022/06/03 01:37:00.013,n,190,4.68,3.6,5.4,10.8,70.9,1020.12,0,0,0,0,0.033951
2022/06/03 01:38:00.011,n,289,2.16,1.08,4.32,10.8,71.1,1020.12,0,0,0,0,0.034828
2022/06/03 01:39:00.008,n,277,2.88,2.16,3.24,10.8,71.8,1020.02,0,0,0,0,0.035706
2022/06/03 01:40:00.000,n,272,2.16,1.8,2.16,10.8,71.6,1020.02,0,0,0,0,0.033951
2022/06/03 01:41:00.000,n,240,0.72,0,1.08,10.8,71,1020.02,0,0,0,0,0.030479
2022/06/03 01:42:00.000,n,151,5.4,3.24,9,10.8,70.8,1020.02,0,0,0,0,0.035706
2022/06/03 01:43:00.004,n,205,2.52,2.16,2.88,10.8,70.5,1020.02,0,0,0,0,0.033112
2022/06/03 01:44:00.002,n,210,1.8,1.44,2.16,10.8,70.7,1020.02,0,0,0,0,0.034828
2022/06/03 01:45:00.000,n,208,0.36,0,0.72,10.8,70.8,1020.02,0,0,0,0,0.032234
2022/06/03 01:46:00.000,n,144,1.44,1.08,2.52,10.8,70.7,1020.02,0,0,0,0,0.033951
2022/06/03 01:47:00.013,n,300,2.16,1.8,2.52,10.8,70.9,1020.02,0,0,0,0,0.033112
2022/06/03 01:48:00.009,n,120,2.88,2.52,3.24,10.8,70.9,1020.02,0,0,0,0,0.039177
2022/06/03 01:49:00.000,n,122,2.52,1.44,3.6,10.8,70.9,1020.02,0,0,0,0,0.034828
2022/06/03 01:50:00.000,n,180,4.32,2.88,8.28,10.8,70.8,1020.02,0,0,0,0,0.033951
2022/06/03 01:51:00.001,n,302,1.08,0.72,1.44,10.8,70.7,1019.92,0,0,0,0,0.032234
2022/06/03 01:52:00.000,n,271,1.44,0.72,2.16,10.8,71,1019.92,0,0,0,0,0.034828
2022/06/03 01:53:00.000,n,242,2.16,1.8,2.52,10.8,71.3,1019.92,0,0,0,0,0.035706
2022/06/03 01:54:00.010,n,137,3.24,2.52,3.6,10.8,71.1,1019.92,0,0,0,0,0.033951
2022/06/03 01:55:00.007,n,148,1.8,0.72,3.6,10.8,70.9,1019.92,0,0,0,0,0.033112
2022/06/03 01:56:00.004,n,265,2.52,2.52,2.88,10.8,71.1,1019.92,0,0,0,0,0.034828
2022/06/03 01:57:00.002,n,156,5.4,2.88,9.72,10.8,71.3,1019.92,0,0,0,0,0.034828
2022/06/03 01:58:00.000,n,150,9,5.76,14.4,10.8,71.3,1019.92,0,0,0,0,0.033112
2022/06/03 01:59:00.000,n,170,5.4,4.32,9,10.8,71.4,1019.92,0,0,0,0,0.035706
2022/06/03 02:00:00.000,n,168,3.6,2.88,3.96,10.8,71.5,1019.92,0,0,0,0,0.035706
2022/06/03 02:01:00.000,n,174,3.24,2.52,4.32,10.8,71.5,1019.92,0,0,0,0,0.034828
2022/06/03 02:02:00.005,n,179,1.8,1.08,2.16,10.8,71.6,1019.92,0,0,0,0,0.033112
2022/06/03 02:03:00.003,n,177,2.16,1.44,3.24,10.8,71.8,1019.92,0,0,0,0,0.034828
2022/06/03 02:04:00.000,n,151,2.52,1.44,5.4,10.9,71.7,1019.92,0,0,0,0,0.036583
2022/06/03 02:05:00.014,n,87,1.44,1.08,2.16,10.8,71.6,1019.92,0,0,0,0,0.032234
2022/06/03 02:06:00.012,n,267,1.44,0.36,2.16,10.8,71.8,1019.92,0,0,0,0,0.035706
2022/06/03 02:07:00.000,n,241,1.8,1.08,2.16,10.8,71.8,1019.92,0,0,0,0,0.03746
2022/06/03 02:08:00.000,n,273,1.44,1.08,2.16,10.8,71.9,1019.92,0,0,0,0,0.032234
2022/06/03 02:09:00.003,n,260,1.44,1.08,1.8,10.8,72,1019.92,0,0,0,0,0.033951
2022/06/03 02:10:00.000,n,228,0.36,0,0.72,10.8,72.1,1019.92,0,0,0,0,0.03746
2022/06/03 02:11:00.000,n,265,1.08,0.72,1.8,10.8,72.2,1019.92,0,0,0,0,0.034828
2022/06/03 02:12:00.010,n,54,0.36,0.36,0.72,10.8,72.2,1019.92,0,0,0,0,0.033112
2022/06/03 02:13:00.008,n,330,1.44,0.72,2.16,10.8,72.2,1020.02,0,0,0,0,0.035706
2022/06/03 02:14:00.004,n,322,1.08,0.36,1.44,10.8,72.6,1020.02,0,0,0,0,0.036583
2022/06/03 02:15:00.002,n,123,3.6,3.24,3.96,10.8,72.4,1019.92,0,0,0,0,0.030479
2022/06/03 02:16:00.000,n,185,3.96,3.24,4.68,10.7,72.4,1019.92,0,0,0,0,0.032234
2022/06/03 02:17:00.000,n,129,2.16,0.72,2.88,10.7,72.4,1019.92,0,0,0,0,0.034828
2022/06/03 02:18:00.000,n,205,5.4,4.32,6.48,10.7,72.7,1019.92,0,0,0,0,0.035706
2022/06/03 02:19:00.000,n,192,3.96,3.6,4.32,10.6,73,1019.92,0,0,0,0,0.032234
2022/06/03 02:20:00.004,n,320,1.44,0.72,1.8,10.6,73.3,1020.02,0,0,0,0,0.033951
2022/06/03 02:21:00.001,n,357,2.52,1.8,3.24,10.6,74,1020.02,0,0,0,0,0.032234
2022/06/03 02:22:00.000,n,147,2.16,1.8,2.52,10.7,73.3,1019.92,0,0,0,0,0.029602
2022/06/03 02:23:00.014,n,339,2.52,1.08,2.88,10.7,73.1,1019.92,0,0,0,0,0.029602
2022/06/03 02:24:00.012,n,237,2.88,2.16,3.6,10.7,73.5,1019.92,0,0,0,0,0.033112
2022/06/03 02:25:00.000,n,251,2.16,1.08,3.96,10.7,73.2,1019.92,0,0,0,0,0.033112
2022/06/03 02:26:00.000,n,152,5.04,3.24,8.28,10.7,72.9,1019.92,0,0,0,0,0.033951
2022/06/03 02:27:00.003,n,141,1.08,0.36,1.8,10.6,72.8,1019.92,0,0,0,0,0.029602
2022/06/03 02:28:00.001,n,142,2.52,1.44,3.96,10.6,72.8,1019.92,0,0,0,0,0.030479
2022/06/03 02:29:00.000,n,178,3.24,2.52,3.96,10.6,72.7,1020.02,0,0,0,0,0.031357
2022/06/03 02:30:00.000,n,113,1.08,0.36,2.16,10.6,72.9,1020.02,0,0,0,0,0.028763
2022/06/03 02:31:00.010,n,287,4.32,3.24,5.04,10.5,72.6,1020.02,0,0,0,0,0.032234
2022/06/03 02:32:00.008,n,231,3.6,3.24,3.96,10.5,72.9,1020.02,0,0,0,0,0.026131
2022/06/03 02:33:00.004,n,155,3.6,2.52,4.68,10.5,72.8,1020.02,0,0,0,0,0.028763
2022/06/03 02:34:00.001,n,157,2.52,1.44,3.24,10.5,72.7,1020.02,0,0,0,0,0.024376
2022/06/03 02:35:00.001,n,186,3.96,2.88,5.04,10.5,72.7,1020.02,0,0,0,0,0.028763
2022/06/03 02:36:00.000,n,155,3.96,2.88,4.68,10.5,72.8,1020.02,0,0,0,0,0.02697
2022/06/03 02:37:00.000,n,191,2.88,1.08,5.4,10.5,72.8,1020.12,0,0,0,0,0.026131
2022/06/03 02:38:00.008,n,196,3.6,1.8,4.68,10.5,73,1020.12,0,0,0,0,0.025253
2022/06/03 02:39:00.005,n,119,2.52,1.44,3.24,10.5,73,1020.12,0,0,0,0,0.025253
2022/06/03 02:40:00.002,n,255,1.8,1.44,2.16,10.4,72.9,1020.12,0,0,0,0,0.025253
2022/06/03 02:41:00.000,n,303,2.88,2.52,3.24,10.5,73.4,1020.12,0,0,0,0,0.024376
2022/06/03 02:42:00.014,n,296,3.96,3.6,5.4,10.5,73.6,1020.12,0,0,0,0,0.022621
2022/06/03 02:43:00.000,n,25,1.44,0.72,1.8,10.5,73.5,1020.12,0,0,0,0,0.020905
2022/06/03 02:44:00.000,n,312,1.44,1.08,1.8,10.5,73.5,1020.12,0,0,0,0,0.023499
2022/06/03 02:45:00.000,n,145,0.72,0.36,1.08,10.5,73.1,1020.02,0,0,0,0,0.028763
2022/06/03 02:46:00.000,n,182,1.08,0.36,1.8,10.4,73.1,1020.02,0,0,0,0,0.033112
2022/06/03 02:47:00.000,n,236,2.16,1.8,2.52,10.4,73.3,1020.02,0,0,0,0,0.030518
2022/06/03 02:48:00.000,n,153,0.72,0.36,0.72,10.4,73.3,1020.02,0,0,0,0,0.031357
2022/06/03 02:49:00.008,n,158,2.16,0.72,2.52,10.3,73.8,1020.02,0,0,0,0,0.032234
2022/06/03 02:50:00.005,n,212,4.68,3.24,5.76,10.3,73.4,1020.12,0,0,0,0,0.030518
2022/06/03 02:51:00.002,n,291,4.32,1.08,5.4,10.3,73.4,1020.12,0,0,0,0,0.028763
2022/06/03 02:52:00.000,n,93,0.72,0.36,1.44,10.3,73.4,1020.12,0,0,0,0,0.027885
2022/06/03 02:53:00.000,n,283,3.96,3.6,4.68,10.3,73.6,1020.22,0,0,0,0,0.033951
2022/06/03 02:54:00.000,n,256,3.24,3.24,3.24,10.3,73.7,1020.22,0,0,0,0,0.030518
2022/06/03 02:55:00.000,n,257,3.6,2.88,4.68,10.2,73.8,1020.32,0,0,0,0,0.029602
2022/06/03 02:56:00.004,n,260,1.08,0.72,1.08,10.2,73.9,1020.32,0,0,0,0,0.029602
2022/06/03 02:57:00.001,n,312,1.44,0.72,1.8,10.2,74.2,1020.32,0,0,0,0,0.027885
2022/06/03 02:58:00.000,n,298,2.52,1.8,3.24,10.2,74.2,1020.32,0,0,0,0,0.026169
2022/06/03 02:59:00.012,n,284,4.68,2.52,5.4,10.2,74.3,1020.32,0,0,0,0,0.027008
2022/06/03 03:00:00.009,n,177,1.44,0.72,2.52,10.2,74.6,1020.32,0,0,0,0,0.025253
2022/06/03 03:01:00.000,n,152,1.08,0.36,2.16,10.2,75.1,1020.32,0,0,0,0,0.022659
2022/06/03 03:02:00.003,n,192,3.6,2.88,3.96,10.2,74.6,1020.32,0,0,0,0,0.025253
2022/06/03 03:03:00.000,n,124,1.8,1.8,2.16,10.2,74.7,1020.22,0,0,0,0,0.027885
2022/06/03 03:04:00.000,n,76,2.88,1.8,4.32,10.2,74.6,1020.22,0,0,0,0,0.025253
2022/06/03 03:05:00.000,n,312,1.8,1.08,2.52,10.2,74.7,1020.22,0,0,0,0,0.025253
2022/06/03 03:06:00.008,n,124,2.52,1.8,3.6,10.2,75,1020.32,0,0,0,0,0.026169
2022/06/03 03:07:00.006,n,293,1.44,0.36,2.16,10.2,74.4,1020.32,0,0,0,0,0.023537
2022/06/03 03:08:00.003,n,264,2.52,1.8,2.88,10.2,74.4,1020.22,0,0,0,0,0.024376
2022/06/03 03:09:00.000,n,163,2.88,2.16,3.6,10.2,74.5,1020.22,0,0,0,0,0.02182
2022/06/03 03:10:00.001,n,199,4.32,3.96,5.04,10.2,74.3,1020.22,0,0,0,0,0.019188
2022/06/03 03:11:00.000,n,207,1.08,0.72,1.44,10.2,74.3,1020.22,0,0,0,0,0.02182
2022/06/03 03:12:00.000,n,154,2.52,2.16,3.6,10.2,74.4,1020.12,0,0,0,0,0.020905
2022/06/03 03:13:00.005,n,212,3.24,2.52,3.96,10.2,74.3,1020.12,0,0,0,0,0.025253
2022/06/03 03:14:00.000,n,144,2.16,1.8,3.6,10.1,74.5,1020.12,0,0,0,0,0.033112
2022/06/03 03:15:00.000,n,192,0.72,0.36,1.08,10.1,74.4,1020.02,0,0,0,0,0.029602
2022/06/03 03:16:00.000,n,146,3.24,2.88,3.6,10.1,74.6,1020.02,0,0,0,0,0.031357
2022/06/03 03:17:00.010,n,156,2.16,2.16,2.88,10.1,74.5,1020.02,0,0,0,0,0.034866
2022/06/03 03:18:00.007,n,137,3.6,2.88,4.32,10.1,74.6,1020.02,0,0,0,0,0.029602
2022/06/03 03:19:00.000,n,189,2.16,1.8,2.88,10.1,74.6,1020.12,0,0,0,0,0.033951
2022/06/03 03:20:00.002,n,232,1.44,1.08,1.44,10.1,74.7,1020.12,0,0,0,0,0.027885
2022/06/03 03:21:00.000,n,117,1.8,0.72,2.88,10.1,74.9,1020.12,0,0,0,0,0.026131
2022/06/03 03:22:00.000,n,141,1.8,0.72,2.16,10.1,74.9,1020.12,0,0,0,0,0.028725
2022/06/03 03:23:00.000,n,166,2.52,1.8,2.88,10.1,74.7,1020.12,0,0,0,0,0.029602
2022/06/03 03:24:00.008,n,220,4.32,2.88,5.4,10.1,74.7,1020.12,0,0,0,0,0.024376
2022/06/03 03:25:00.005,n,301,2.52,1.08,3.24,10.1,74.7,1020.22,0,0,0,0,0.025253
2022/06/03 03:26:00.003,n,303,1.44,1.08,2.16,10,74.9,1020.22,0,0,0,0,0.027008
2022/06/03 03:27:00.001,n,87,1.08,0.72,1.44,10,74.9,1020.22,0,0,0,0,0.028725
2022/06/03 03:28:00.000,n,246,1.44,0.72,2.52,10,74.9,1020.22,0,0,0,0,0.022659
2022/06/03 03:29:00.000,n,313,3.96,3.24,4.68,10,74.9,1020.22,0,0,0,0,0.027885
2022/06/03 03:30:00.000,n,271,1.8,1.08,1.8,10,74.9,1020.22,0,0,0,0,0.024376
2022/06/03 03:31:00.005,n,302,2.88,2.52,3.6,10,75.3,1020.22,0,0,0,0,0.026131
2022/06/03 03:32:00.002,n,244,1.08,0.36,1.8,10,75.6,1020.22,0,0,0,0,0.023537
2022/06/03 03:33:00.000,n,1,1.8,0.72,2.52,10,75.6,1020.22,0,0,0,0,0.022659
2022/06/03 03:34:00.013,n,222,1.8,1.44,2.16,10.1,75.3,1020.22,0,0,0,0,0.024376
2022/06/03 03:35:00.009,n,214,0.72,0.36,1.08,10.1,75.1,1020.22,0,0,0,0,0.023537
2022/06/03 03:36:00.007,n,130,0.72,0.36,1.44,10.1,75.1,1020.12,0,0,0,0,0.020905
2022/06/03 03:37:00.000,n,271,3.24,2.88,4.68,10.1,74.9,1020.12,0,0,0,0,0.021782
2022/06/03 03:38:00.001,n,128,1.8,1.44,2.16,10.1,74.8,1020.12,0,0,0,0,0.025253
2022/06/03 03:39:00.000,n,152,2.52,2.16,3.24,10,74.7,1020.12,0,0,0,0,0.024376
2022/06/03 03:40:00.000,n,176,2.16,1.8,2.88,10,74.8,1020.12,0,0,0,0,0.027008
2022/06/03 03:41:00.000,n,116,1.08,0.72,1.08,10,74.7,1020.12,0,0,0,0,0.031357
2022/06/03 03:42:00.007,n,130,3.24,2.52,4.32,10,74.7,1020.02,0,0,0,0,0.024414
2022/06/03 03:43:00.005,n,157,1.44,1.08,1.44,10,74.7,1020.02,0,0,0,0,0.028763
2022/06/03 03:44:00.001,n,108,1.8,1.44,2.16,10,74.7,1020.02,0,0,0,0,0.029602
2022/06/03 03:45:00.000,n,152,4.32,2.88,5.4,10,74.6,1020.02,0,0,0,0,0.030479
2022/06/03 03:46:00.000,n,216,1.8,1.08,2.88,10,74.4,1020.02,0,0,0,0,0.027008
2022/06/03 03:47:00.000,n,171,4.32,1.8,5.4,10,74.4,1020.12,0,0,0,0,0.030479
2022/06/03 03:48:00.000,n,104,2.16,0.72,2.88,10,74.4,1020.12,0,0,0,0,0.033112
2022/06/03 03:49:00.004,n,230,2.52,1.44,3.96,10,74.3,1020.12,0,0,0,0,0.028763
2022/06/03 03:50:00.001,n,313,1.44,0.72,1.8,10,74.4,1020.12,0,0,0,0,0.027885
2022/06/03 03:51:00.000,n,318,4.32,3.24,5.04,10,74.1,1020.12,0,0,0,0,0.029602
2022/06/03 03:52:00.012,n,140,2.52,2.52,3.24,10,73.9,1020.12,0,0,0,0,0.028763
2022/06/03 03:53:00.009,n,154,5.04,4.32,8.64,10,74.1,1020.12,0,0,0,0,0.028763
2022/06/03 03:54:00.006,n,148,3.96,3.24,5.4,10,73.7,1020.12,0,0,0,0,0.028763
2022/06/03 03:55:00.000,n,154,0.72,0.36,1.8,10,73.8,1020.12,0,0,0,0,0.027885
2022/06/03 03:56:00.000,n,218,1.08,0.36,1.8,10,73.8,1020.12,0,0,0,0,0.027008
2022/06/03 03:57:00.000,n,183,1.44,0.36,1.8,10,73.9,1020.12,0,0,0,0,0.028763
2022/06/03 03:58:00.000,n,176,2.52,1.08,3.96,10,73.9,1020.12,0,0,0,0,0.030479
2022/06/03 03:59:00.008,n,156,3.24,2.88,5.04,10,73.9,1020.12,0,0,0,0,0.027008
2022/06/03 04:00:00.005,n,202,1.08,0.36,1.8,10,73.9,1020.12,0,0,0,0,0.025253
2022/06/03 04:01:00.002,n,201,2.16,1.08,3.96,10,73.9,1020.12,0,0,0,0,0.027885
2022/06/03 04:02:00.000,n,160,3.96,1.8,6.84,10,73.9,1020.12,0,0,0,0,0.027885
2022/06/03 04:03:00.013,n,169,5.04,1.08,7.2,10,73.9,1020.12,0,0,0,0,0.024414
2022/06/03 04:04:00.000,n,166,1.08,0.36,1.44,10,74,1020.12,0,0,0,0,0.023537
2022/06/03 04:05:00.000,n,182,4.32,3.24,5.4,10,73.8,1020.12,0,0,0,0,0.026131
2022/06/03 04:06:00.001,n,185,2.52,2.16,3.24,10,73.6,1020.22,0,0,0,0,0.024414
2022/06/03 04:07:00.000,n,145,3.24,2.88,3.6,10,73.7,1020.22,0,0,0,0,0.022659
2022/06/03 04:08:00.000,n,138,2.16,1.8,2.52,10,73.7,1020.22,0,0,0,0,0.023537
2022/06/03 04:09:00.009,n,172,1.8,1.08,2.88,9.9,73.7,1020.22,0,0,0,0,0.023537
2022/06/03 04:10:00.000,n,112,1.8,1.8,2.52,9.9,73.7,1020.22,0,0,0,0,0.027885
2022/06/03 04:11:00.004,n,201,1.08,0.36,1.8,9.9,73.9,1020.22,0,0,0,0,0.024414
2022/06/03 04:12:00.009,n,197,2.16,2.16,2.52,9.9,73.8,1020.22,0,0,0,0,0.030441
2022/06/03 04:13:00.000,n,151,1.8,0.72,2.16,9.9,73.6,1020.22,0,0,0,0,0.034828
2022/06/03 04:14:00.002,n,159,1.08,0.72,1.44,9.9,73.6,1020.22,0,0,0,0,0.030441
2022/06/03 04:15:00.000,n,164,3.96,3.24,4.68,9.9,73.6,1020.22,0,0,0,0,0.033951
2022/06/03 04:16:00.000,n,168,4.32,3.96,4.68,9.9,73.5,1020.12,0,0,0,0,0.033073
2022/06/03 04:17:00.003,n,192,5.04,3.96,6.12,9.9,73.4,1020.12,0,0,0,0,0.033073
2022/06/03 04:18:00.007,n,162,7.56,3.6,12.24,9.9,73.4,1020.12,0,0,0,0,0.032234
2022/06/03 04:19:00.012,n,147,2.16,1.08,3.24,9.8,73.4,1020.12,0,0,0,0,0.029602
2022/06/03 04:20:00.002,n,134,1.8,1.08,3.24,9.8,73.4,1020.12,0,0,0,0,0.033951
2022/06/03 04:21:00.006,n,144,2.16,0.72,2.88,9.8,73.3,1020.12,0,0,0,0,0.033073
2022/06/03 04:22:00.000,n,230,4.32,3.24,5.04,9.8,73.3,1020.12,0,0,0,0,0.030441
2022/06/03 04:23:00.001,n,157,5.4,5.04,6.12,9.8,73.3,1020.12,0,0,0,0,0.030441
2022/06/03 04:24:00.000,n,199,1.8,1.08,2.88,9.8,73.4,1020.12,0,0,0,0,0.031319
2022/06/03 04:25:00.000,n,147,5.4,4.68,5.76,9.8,73.1,1020.12,0,0,0,0,0.029602
2022/06/03 04:26:00.000,n,137,2.88,2.52,3.6,9.8,73.1,1020.12,0,0,0,0,0.031319
2022/06/03 04:27:00.006,n,245,1.08,0.72,1.44,9.8,73.2,1020.12,0,0,0,0,0.033951
2022/06/03 04:28:00.010,n,207,3.24,1.8,4.32,9.8,73.1,1020.12,0,0,0,0,0.033073
2022/06/03 04:29:00.000,n,203,2.88,1.08,5.04,9.8,73,1020.12,0,0,0,0,0.032234
2022/06/03 04:30:00.005,n,165,5.76,4.68,6.48,9.8,73,1020.22,0,0,0,0,0.033951
2022/06/03 04:31:00.000,n,172,2.52,2.16,2.88,9.8,72.9,1020.22,0,0,0,0,0.034828
2022/06/03 04:32:00.000,n,148,1.08,0.72,2.16,9.9,72.9,1020.22,0,0,0,0,0.030441
2022/06/03 04:33:00.004,n,238,4.68,3.96,5.04,9.9,72.8,1020.22,0,0,0,0,0.029602
2022/06/03 04:34:00.000,n,191,7.56,6.48,8.64,9.9,72.5,1020.22,0,0,0,0,0.028725
2022/06/03 04:35:00.000,n,210,4.32,3.24,5.04,9.9,72.3,1020.22,0,0,0,0,0.028725
2022/06/03 04:36:00.003,n,163,5.04,4.68,5.76,9.9,72.7,1020.22,0,0,0,0,0.031319
2022/06/03 04:37:00.008,n,113,3.24,2.16,3.96,9.9,72.2,1020.22,0,0,0,0,0.029602
2022/06/03 04:38:00.013,n,149,3.6,2.88,5.4,9.9,72.3,1020.32,0,0,0,0,0.034828
2022/06/03 04:39:00.002,n,181,2.52,1.44,2.88,10,72.1,1020.32,0,0,0,0,0.029602
2022/06/03 04:40:00.000,n,323,1.08,0.36,1.44,10,72,1020.32,0,0,0,0,0.030441
2022/06/03 04:41:00.000,n,138,2.88,1.44,3.6,9.9,72.1,1020.32,0,0,0,0,0.030441
2022/06/03 04:42:00.002,n,108,2.16,0.72,3.24,10,71.8,1020.32,0,0,0,0,0.033073
2022/06/03 04:43:00.000,n,177,2.88,2.52,3.24,10,71.6,1020.32,0,0,0,0,0.032234
2022/06/03 04:44:00.000,n,148,3.96,3.96,3.96,10,71.5,1020.32,0,0,0,0,0.029602
2022/06/03 04:45:00.009,n,189,1.08,0.72,1.8,10,71.5,1020.32,0,0,0,0,0.030441
2022/06/03 04:46:00.009,n,142,0.72,0,1.08,9.9,71.6,1020.32,0,0,0,0,0.031319
2022/06/03 04:47:00.014,n,163,3.24,1.44,4.32,9.9,71.7,1020.32,0,0,0,0,0.028725
2022/06/03 04:48:00.003,n,175,2.88,2.52,3.24,9.9,71.6,1020.32,0,0,0,0,0.030441
2022/06/03 04:49:00.000,n,152,2.52,2.52,2.88,9.9,71.7,1020.32,0,0,0,0,0.032234
2022/06/03 04:50:00.000,n,245,3.6,2.88,3.96,9.9,71.8,1020.32,0,0,0,0,0.033951
2022/06/03 04:51:00.002,n,180,5.04,4.32,5.4,10,71.6,1020.32,0,0,0,0,0.028725
2022/06/03 04:52:00.004,n,348,1.44,1.08,1.8,9.9,71.6,1020.32,0,0,0,0,0.036583
2022/06/03 04:53:00.005,n,126,6.12,1.08,9,9.9,71.7,1020.32,0,0,0,0,0.032234
2022/06/03 04:54:00.000,n,167,2.16,1.44,3.24,10,71.6,1020.32,0,0,0,0,0.036583
2022/06/03 04:55:00.008,n,179,5.04,3.6,6.48,10,71.4,1020.32,0,0,0,0,0.035667
2022/06/03 04:56:00.005,n,241,1.8,1.8,2.16,9.9,71.4,1020.32,0,0,0,0,0.034828
2022/06/03 04:57:00.009,n,182,1.8,0.72,4.68,10,71.7,1020.32,0,0,0,0,0.033073
2022/06/03 04:58:00.000,n,357,0.72,0.36,1.08,10,71.5,1020.32,0,0,0,0,0.033073